Time,TemperatureF,DewpointF,PressureIn,WindDirection,WindDirectionDegrees,WindSpeedMPH,WindSpeedGustMPH,Humidity,HourlyPrecipIn,Conditions,Clouds,dailyrainin,SolarRadiationWatts/m^2,SoftwareType,DateUTC
2013-01-26 00:03:00,49.0,46.0,-100.00,WSW,242,1.0,-999.0,91,0.00,,,-99.99,0.000000,,2013-01-26 05:03:00,
2013-01-26 00:12:00,48.0,46.0,-100.00,SSW,203,0.0,-999.0,92,0.00,,,-99.99,0.000000,,2013-01-26 05:12:00,
2013-01-26 00:23:00,48.0,46.0,-100.00,SSW,203,0.0,-999.0,92,0.00,,,-99.99,0.000000,,2013-01-26 05:23:00,
2013-01-26 00:33:00,48.0,46.0,-100.00,SW,221,1.0,-999.0,92,0.00,,,-99.99,0.000000,,2013-01-26 05:33:00,
2013-01-26 00:42:00,48.0,46.0,-100.00,WSW,252,1.0,-999.0,93,0.00,,,-99.99,0.000000,,2013-01-26 05:42:00,
2013-01-26 00:52:00,48.0,46.0,-100.00,WSW,252,1.0,-999.0,93,0.00,,,-99.99,0.000000,,2013-01-26 05:52:00,
2013-01-26 01:02:00,49.0,47.0,-100.00,WSW,256,2.0,-999.0,93,0.00,,,-99.99,0.000000,,2013-01-26 06:02:00,
2013-01-26 01:12:00,48.0,46.0,-100.00,SW,232,1.0,-999.0,93,0.00,,,-99.99,0.000000,,2013-01-26 06:12:00,
2013-01-26 01:21:00,48.0,46.0,-100.00,SW,232,1.0,-999.0,93,0.00,,,-99.99,0.000000,,2013-01-26 06:21:00,
2013-01-26 01:32:00,48.0,47.0,-100.00,WSW,255,2.0,-999.0,94,0.00,,,-99.99,0.000000,,2013-01-26 06:32:00,
2013-01-26 01:42:00,48.0,47.0,-100.00,WSW,255,2.0,-999.0,94,0.00,,,-99.99,0.000000,,2013-01-26 06:42:00,
2013-01-26 01:52:00,48.0,46.0,-100.00,West,261,1.0,-999.0,94,0.00,,,-99.99,0.000000,,2013-01-26 06:52:00,
2013-01-26 02:02:00,47.0,46.0,-100.00,WNW,289,1.0,-999.0,94,0.00,,,-99.99,0.000000,,2013-01-26 07:02:00,
2013-01-26 02:12:00,46.0,45.0,-100.00,WSW,248,1.0,-999.0,94,0.00,,,-99.99,0.000000,,2013-01-26 07:12:00,
2013-01-26 02:22:00,46.0,45.0,-100.00,WSW,248,1.0,-999.0,94,0.00,,,-99.99,0.000000,,2013-01-26 07:22:00,
2013-01-26 02:33:00,46.0,45.0,-100.00,West,272,1.0,-999.0,95,0.00,,,-99.99,0.000000,,2013-01-26 07:33:00,
2013-01-26 02:42:00,46.0,45.0,-100.00,West,272,1.0,-999.0,95,0.00,,,-99.99,0.000000,,2013-01-26 07:42:00,
2013-01-26 02:52:00,46.0,45.0,-100.00,West,272,1.0,-999.0,95,0.00,,,-99.99,0.000000,,2013-01-26 07:52:00,
2013-01-26 03:02:00,46.0,45.0,-100.00,WNW,292,0.0,-999.0,95,0.00,,,-99.99,0.000000,,2013-01-26 08:02:00,
2013-01-26 03:11:00,46.0,44.0,-100.00,SSW,194,1.0,-999.0,95,0.00,,,-99.99,0.000000,,2013-01-26 08:11:00,
2013-01-26 03:22:00,46.0,44.0,-100.00,SSW,194,1.0,-999.0,95,0.00,,,-99.99,0.000000,,2013-01-26 08:22:00,
2013-01-26 03:32:00,46.0,44.0,-100.00,SSW,194,1.0,-999.0,95,0.00,,,-99.99,0.000000,,2013-01-26 08:32:00,
2013-01-26 03:42:00,47.0,46.0,-100.00,West,268,1.0,-999.0,96,0.00,,,-99.99,0.000000,,2013-01-26 08:42:00,
2013-01-26 03:54:00,47.0,46.0,-100.00,West,268,1.0,-999.0,96,0.00,,,-99.99,0.000000,,2013-01-26 08:54:00,
2013-01-26 04:02:00,47.0,46.0,-100.00,West,268,1.0,-999.0,96,0.00,,,-99.99,0.000000,,2013-01-26 09:02:00,
2013-01-26 04:11:00,48.0,46.0,-100.00,West,276,1.0,-999.0,96,0.00,,,-99.99,0.000000,,2013-01-26 09:11:00,
2013-01-26 04:22:00,48.0,46.0,-100.00,West,276,1.0,-999.0,96,0.00,,,-99.99,0.000000,,2013-01-26 09:22:00,
2013-01-26 04:32:00,48.0,46.0,-100.00,West,276,1.0,-999.0,96,0.00,,,-99.99,0.000000,,2013-01-26 09:32:00,
2013-01-26 04:42:00,48.0,47.0,-100.00,West,261,1.0,-999.0,96,0.00,,,-99.99,0.000000,,2013-01-26 09:42:00,
2013-01-26 04:52:00,48.0,47.0,-100.00,West,270,1.0,-999.0,96,0.00,,,-99.99,0.000000,,2013-01-26 09:52:00,
2013-01-26 05:01:00,48.0,47.0,-100.00,West,272,1.0,-999.0,96,0.00,,,-99.99,0.000000,,2013-01-26 10:01:00,
2013-01-26 05:12:00,48.0,47.0,-100.00,WSW,247,1.0,-999.0,96,0.00,,,-99.99,0.000000,,2013-01-26 10:12:00,
2013-01-26 05:21:00,48.0,47.0,-100.00,WSW,247,1.0,-999.0,96,0.00,,,-99.99,0.000000,,2013-01-26 10:21:00,
2013-01-26 05:32:00,47.0,46.0,-100.00,SW,217,1.0,-999.0,96,0.00,,,-99.99,0.000000,,2013-01-26 10:32:00,
2013-01-26 05:42:00,46.0,45.0,-100.00,WSW,255,1.0,-999.0,96,0.00,,,-99.99,0.000000,,2013-01-26 10:42:00,
2013-01-26 05:52:00,46.0,45.0,-100.00,WSW,255,1.0,-999.0,96,0.00,,,-99.99,0.000000,,2013-01-26 10:52:00,
2013-01-26 06:01:00,46.0,45.0,-100.00,WSW,244,1.0,-999.0,96,0.00,,,-99.99,0.000000,,2013-01-26 11:01:00,
2013-01-26 06:12:00,47.0,46.0,-100.00,WSW,256,1.0,-999.0,97,0.00,,,-99.99,0.000000,,2013-01-26 11:12:00,
2013-01-26 06:22:00,47.0,46.0,-100.00,WSW,256,1.0,-999.0,97,0.00,,,-99.99,0.000000,,2013-01-26 11:22:00,
2013-01-26 06:32:00,47.0,46.0,-100.00,WSW,256,1.0,-999.0,97,0.00,,,-99.99,0.000000,,2013-01-26 11:32:00,
2013-01-26 06:42:00,47.0,46.0,-100.00,WSW,256,1.0,-999.0,97,0.00,,,-99.99,0.000000,,2013-01-26 11:42:00,
2013-01-26 06:52:00,47.0,46.0,-100.00,West,265,1.0,-999.0,97,0.00,,,-99.99,0.000000,,2013-01-26 11:52:00,
2013-01-26 07:02:00,47.0,46.0,-100.00,West,259,1.0,-999.0,97,0.00,,,-99.99,0.000000,,2013-01-26 12:02:00,
2013-01-26 07:12:00,47.0,46.0,-100.00,West,264,1.0,-999.0,97,0.00,,,-99.99,0.000000,,2013-01-26 12:12:00,
2013-01-26 07:23:00,47.0,46.0,-100.00,West,264,1.0,-999.0,97,0.00,,,-99.99,0.000000,,2013-01-26 12:23:00,
2013-01-26 07:33:00,47.0,46.0,-100.00,West,266,1.0,-999.0,97,0.00,,,-99.99,1.100000,,2013-01-26 12:33:00,
2013-01-26 07:42:00,47.0,46.0,-100.00,West,280,1.0,-999.0,97,0.00,,,-99.99,7.300000,,2013-01-26 12:42:00,
2013-01-26 07:53:00,47.0,46.0,-100.00,West,280,1.0,-999.0,97,0.00,,,-99.99,7.300000,,2013-01-26 12:53:00,
2013-01-26 08:03:00,47.0,46.0,-100.00,West,260,1.0,-999.0,97,0.00,,,-99.99,24.600000,,2013-01-26 13:03:00,
2013-01-26 08:12:00,48.0,47.0,-100.00,WSW,242,1.0,-999.0,97,0.00,,,-99.99,50.799999,,2013-01-26 13:12:00,
2013-01-26 08:22:00,48.0,47.0,-100.00,WSW,242,1.0,-999.0,97,0.00,,,-99.99,50.799999,,2013-01-26 13:22:00,
2013-01-26 08:33:00,49.0,48.0,-100.00,West,259,1.0,-999.0,97,0.00,,,-99.99,94.599998,,2013-01-26 13:33:00,
2013-01-26 08:42:00,49.0,48.0,-100.00,West,259,1.0,-999.0,97,0.00,,,-99.99,94.599998,,2013-01-26 13:42:00,
2013-01-26 08:53:00,51.0,50.0,-100.00,West,281,1.0,-999.0,97,0.00,,,-99.99,138.600006,,2013-01-26 13:53:00,
2013-01-26 09:03:00,52.0,51.0,-100.00,WSW,252,2.0,-999.0,96,0.00,,,-99.99,227.699997,,2013-01-26 14:03:00,
2013-01-26 09:12:00,54.0,53.0,-100.00,West,278,1.0,-999.0,96,0.00,,,-99.99,293.700012,,2013-01-26 14:12:00,
2013-01-26 09:22:00,54.0,53.0,-100.00,West,278,1.0,-999.0,96,0.00,,,-99.99,293.700012,,2013-01-26 14:22:00,
2013-01-26 09:32:00,56.0,54.0,-100.00,West,273,1.0,-999.0,95,0.00,,,-99.99,345.200012,,2013-01-26 14:32:00,
2013-01-26 09:43:00,57.0,56.0,-100.00,WSW,256,2.0,-999.0,95,0.00,,,-99.99,393.000000,,2013-01-26 14:43:00,
2013-01-26 09:53:00,57.0,56.0,-100.00,WSW,256,2.0,-999.0,95,0.00,,,-99.99,393.000000,,2013-01-26 14:53:00,
2013-01-26 10:03:00,60.0,59.0,-100.00,West,261,2.0,-999.0,95,0.00,,,-99.99,440.500000,,2013-01-26 15:03:00,
2013-01-26 10:12:00,62.0,60.0,-100.00,WSW,252,2.0,-999.0,94,0.00,,,-99.99,484.100006,,2013-01-26 15:12:00,
2013-01-26 10:22:00,62.0,60.0,-100.00,WSW,252,2.0,-999.0,94,0.00,,,-99.99,484.100006,,2013-01-26 15:22:00,
2013-01-26 10:32:00,64.0,61.0,-100.00,WSW,254,2.0,-999.0,92,0.00,,,-99.99,519.000000,,2013-01-26 15:32:00,
2013-01-26 10:43:00,64.0,61.0,-100.00,WSW,254,2.0,-999.0,92,0.00,,,-99.99,519.000000,,2013-01-26 15:43:00,
2013-01-26 10:53:00,66.0,61.0,-100.00,WSW,250,2.0,-999.0,85,0.00,,,-99.99,558.400024,,2013-01-26 15:53:00,
2013-01-26 11:02:00,69.0,60.0,-100.00,West,262,2.0,-999.0,74,0.00,,,-99.99,591.099976,,2013-01-26 16:02:00,
2013-01-26 11:12:00,70.0,60.0,-100.00,West,261,2.0,-999.0,69,0.00,,,-99.99,625.400024,,2013-01-26 16:12:00,
2013-01-26 11:22:00,70.0,60.0,-100.00,West,261,2.0,-999.0,69,0.00,,,-99.99,625.400024,,2013-01-26 16:22:00,
2013-01-26 11:33:00,70.0,59.0,-100.00,WSW,256,3.0,-999.0,68,0.00,,,-99.99,591.599976,,2013-01-26 16:33:00,
2013-01-26 11:43:00,71.0,60.0,-100.00,WSW,258,3.0,-999.0,66,0.00,,,-99.99,653.700012,,2013-01-26 16:43:00,
2013-01-26 11:53:00,71.0,60.0,-100.00,WSW,258,3.0,-999.0,66,0.00,,,-99.99,653.700012,,2013-01-26 16:53:00,
2013-01-26 12:03:00,72.0,60.0,-100.00,WSW,246,3.0,-999.0,64,0.00,,,-99.99,756.000000,,2013-01-26 17:03:00,
2013-01-26 12:13:00,74.0,59.0,-100.00,WSW,255,3.0,-999.0,61,0.00,,,-99.99,815.000000,,2013-01-26 17:13:00,
2013-01-26 12:22:00,74.0,59.0,-100.00,WSW,255,3.0,-999.0,61,0.00,,,-99.99,815.000000,,2013-01-26 17:22:00,
2013-01-26 12:33:00,74.0,59.0,-100.00,West,273,3.0,-999.0,60,0.00,,,-99.99,693.700012,,2013-01-26 17:33:00,
2013-01-26 12:42:00,74.0,59.0,-100.00,West,273,3.0,-999.0,60,0.00,,,-99.99,693.700012,,2013-01-26 17:42:00,
2013-01-26 12:53:00,73.0,59.0,-100.00,West,266,3.0,-999.0,61,0.00,,,-99.99,489.100006,,2013-01-26 17:53:00,
2013-01-26 13:02:00,73.0,59.0,-100.00,West,266,3.0,-999.0,61,0.00,,,-99.99,489.100006,,2013-01-26 18:02:00,
2013-01-26 13:12:00,73.0,59.0,-100.00,West,264,2.0,-999.0,60,0.00,,,-99.99,636.700012,,2013-01-26 18:12:00,
2013-01-26 13:22:00,73.0,59.0,-100.00,West,264,2.0,-999.0,60,0.00,,,-99.99,636.700012,,2013-01-26 18:22:00,
2013-01-26 13:33:00,74.0,58.0,-100.00,WSW,241,2.0,-999.0,56,0.00,,,-99.99,595.700012,,2013-01-26 18:33:00,
2013-01-26 13:42:00,76.0,59.0,-100.00,West,271,3.0,-999.0,56,0.00,,,-99.99,572.599976,,2013-01-26 18:42:00,
2013-01-26 13:53:00,76.0,59.0,-100.00,West,271,3.0,-999.0,56,0.00,,,-99.99,572.599976,,2013-01-26 18:53:00,
2013-01-26 14:03:00,74.0,59.0,-100.00,WSW,257,3.0,-999.0,58,0.00,,,-99.99,543.200012,,2013-01-26 19:03:00,
2013-01-26 14:12:00,74.0,59.0,-100.00,WSW,257,3.0,-999.0,58,0.00,,,-99.99,543.200012,,2013-01-26 19:12:00,
2013-01-26 14:22:00,74.0,58.0,-100.00,West,260,2.0,-999.0,57,0.00,,,-99.99,612.299988,,2013-01-26 19:22:00,
2013-01-26 14:32:00,77.0,59.0,-100.00,WSW,255,3.0,-999.0,52,0.00,,,-99.99,748.000000,,2013-01-26 19:32:00,
2013-01-26 14:42:00,76.0,58.0,-100.00,West,265,3.0,-999.0,53,0.00,,,-99.99,438.799988,,2013-01-26 19:42:00,
2013-01-26 14:53:00,76.0,58.0,-100.00,West,265,3.0,-999.0,53,0.00,,,-99.99,438.799988,,2013-01-26 19:53:00,
2013-01-26 15:02:00,75.0,58.0,-100.00,West,259,2.0,-999.0,55,0.00,,,-99.99,542.099976,,2013-01-26 20:02:00,
2013-01-26 15:11:00,76.0,57.0,-100.00,WSW,250,3.0,-999.0,51,0.00,,,-99.99,566.200012,,2013-01-26 20:11:00,
2013-01-26 15:22:00,76.0,57.0,-100.00,WSW,250,3.0,-999.0,51,0.00,,,-99.99,566.200012,,2013-01-26 20:22:00,
2013-01-26 15:32:00,77.0,57.0,-100.00,WNW,285,2.0,-999.0,50,0.00,,,-99.99,532.000000,,2013-01-26 20:32:00,
2013-01-26 15:42:00,77.0,57.0,-100.00,WNW,285,2.0,-999.0,50,0.00,,,-99.99,532.000000,,2013-01-26 20:42:00,
2013-01-26 15:52:00,77.0,57.0,-100.00,WNW,295,3.0,-999.0,51,0.00,,,-99.99,492.100006,,2013-01-26 20:52:00,
2013-01-26 16:02:00,76.0,57.0,-100.00,WSW,254,2.0,-999.0,51,0.00,,,-99.99,453.100006,,2013-01-26 21:02:00,
2013-01-26 16:12:00,76.0,57.0,-100.00,WSW,254,2.0,-999.0,51,0.00,,,-99.99,453.100006,,2013-01-26 21:12:00,
2013-01-26 16:23:00,76.0,57.0,-100.00,WSW,256,2.0,-999.0,51,0.00,,,-99.99,401.500000,,2013-01-26 21:23:00,
2013-01-26 16:32:00,77.0,57.0,-100.00,West,273,2.0,-999.0,51,0.00,,,-99.99,347.600006,,2013-01-26 21:32:00,
2013-01-26 16:42:00,76.0,57.0,-100.00,WSW,247,2.0,-999.0,52,0.00,,,-99.99,298.500000,,2013-01-26 21:42:00,
2013-01-26 16:52:00,76.0,57.0,-100.00,WSW,247,2.0,-999.0,52,0.00,,,-99.99,298.500000,,2013-01-26 21:52:00,
2013-01-26 17:02:00,75.0,57.0,-100.00,West,259,2.0,-999.0,53,0.00,,,-99.99,194.699997,,2013-01-26 22:02:00,
2013-01-26 17:12:00,75.0,57.0,-100.00,West,259,2.0,-999.0,53,0.00,,,-99.99,194.699997,,2013-01-26 22:12:00,
2013-01-26 17:22:00,73.0,57.0,-100.00,West,261,1.0,-999.0,57,0.00,,,-99.99,49.299999,,2013-01-26 22:22:00,
2013-01-26 17:32:00,71.0,58.0,-100.00,WSW,239,1.0,-999.0,62,0.00,,,-99.99,29.799999,,2013-01-26 22:32:00,
2013-01-26 17:42:00,70.0,58.0,-100.00,West,275,0.0,-999.0,67,0.00,,,-99.99,21.900000,,2013-01-26 22:42:00,
2013-01-26 17:52:00,70.0,58.0,-100.00,West,275,0.0,-999.0,67,0.00,,,-99.99,21.900000,,2013-01-26 22:52:00,
2013-01-26 18:02:00,68.0,58.0,-100.00,South,190,0.0,-999.0,69,0.00,,,-99.99,16.500000,,2013-01-26 23:02:00,
2013-01-26 18:12:00,67.0,58.0,-100.00,North,351,1.0,-999.0,72,0.00,,,-99.99,9.200000,,2013-01-26 23:12:00,
2013-01-26 18:22:00,67.0,58.0,-100.00,North,351,1.0,-999.0,72,0.00,,,-99.99,9.200000,,2013-01-26 23:22:00,
2013-01-26 18:32:00,67.0,58.0,-100.00,North,351,1.0,-999.0,72,0.00,,,-99.99,9.200000,,2013-01-26 23:32:00,
2013-01-26 18:42:00,64.0,57.0,-100.00,NNW,337,0.0,-999.0,77,0.00,,,-99.99,0.200000,,2013-01-26 23:42:00,
2013-01-26 18:52:00,64.0,57.0,-100.00,NNW,337,0.0,-999.0,77,0.00,,,-99.99,0.200000,,2013-01-26 23:52:00,
2013-01-26 19:02:00,63.0,56.0,-100.00,SSE,149,0.0,-999.0,78,0.00,,,-99.99,0.000000,,2013-01-27 00:02:00,
2013-01-26 19:12:00,62.0,55.0,-100.00,South,174,0.0,-999.0,79,0.00,,,-99.99,0.000000,,2013-01-27 00:12:00,
2013-01-26 19:21:00,62.0,55.0,-100.00,South,174,0.0,-999.0,79,0.00,,,-99.99,0.000000,,2013-01-27 00:21:00,
2013-01-26 19:32:00,62.0,55.0,-100.00,South,174,0.0,-999.0,79,0.00,,,-99.99,0.000000,,2013-01-27 00:32:00,
2013-01-26 19:42:00,60.0,56.0,-100.00,South,174,1.0,-999.0,83,0.00,,,-99.99,0.000000,,2013-01-27 00:42:00,
2013-01-26 19:52:00,60.0,56.0,-100.00,NE,35,0.0,-999.0,86,0.00,,,-99.99,0.000000,,2013-01-27 00:52:00,
2013-01-26 20:01:00,59.0,56.0,-100.00,NE,49,0.0,-999.0,88,0.00,,,-99.99,0.000000,,2013-01-27 01:01:00,
2013-01-26 20:11:00,59.0,56.0,-100.00,NE,49,0.0,-999.0,88,0.00,,,-99.99,0.000000,,2013-01-27 01:11:00,
2013-01-26 20:22:00,59.0,56.0,-100.00,NNE,29,0.0,-999.0,89,0.00,,,-99.99,0.000000,,2013-01-27 01:22:00,
2013-01-26 20:32:00,59.0,56.0,-100.00,NNE,29,0.0,-999.0,89,0.00,,,-99.99,0.000000,,2013-01-27 01:32:00,
2013-01-26 20:42:00,58.0,56.0,-100.00,WNW,288,1.0,-999.0,91,0.00,,,-99.99,0.000000,,2013-01-27 01:42:00,
2013-01-26 20:52:00,58.0,56.0,-100.00,WNW,288,1.0,-999.0,91,0.00,,,-99.99,0.000000,,2013-01-27 01:52:00,
2013-01-26 21:01:00,58.0,56.0,-100.00,SW,226,1.0,-999.0,91,0.00,,,-99.99,0.000000,,2013-01-27 02:01:00,
2013-01-26 21:12:00,58.0,56.0,-100.00,West,267,1.0,-999.0,92,0.00,,,-99.99,0.000000,,2013-01-27 02:12:00,
2013-01-26 21:22:00,58.0,56.0,-100.00,West,267,1.0,-999.0,92,0.00,,,-99.99,0.000000,,2013-01-27 02:22:00,
2013-01-26 21:32:00,58.0,56.0,-100.00,WSW,251,1.0,-999.0,92,0.00,,,-99.99,0.000000,,2013-01-27 02:32:00,
2013-01-26 21:42:00,58.0,56.0,-100.00,WSW,251,1.0,-999.0,92,0.00,,,-99.99,0.000000,,2013-01-27 02:42:00,
2013-01-26 21:52:00,58.0,56.0,-100.00,WSW,258,1.0,-999.0,93,0.00,,,-99.99,0.000000,,2013-01-27 02:52:00,
2013-01-26 22:02:00,58.0,56.0,-100.00,West,271,1.0,-999.0,93,0.00,,,-99.99,0.000000,,2013-01-27 03:02:00,
2013-01-26 22:11:00,58.0,56.0,-100.00,West,273,1.0,-999.0,93,0.00,,,-99.99,0.000000,,2013-01-27 03:11:00,
2013-01-26 22:21:00,58.0,56.0,-100.00,West,273,1.0,-999.0,93,0.00,,,-99.99,0.000000,,2013-01-27 03:21:00,
2013-01-26 22:32:00,58.0,56.0,-100.00,West,263,1.0,-999.0,93,0.00,,,-99.99,0.000000,,2013-01-27 03:32:00,
2013-01-26 22:42:00,58.0,56.0,-100.00,West,263,1.0,-999.0,93,0.00,,,-99.99,0.000000,,2013-01-27 03:42:00,
2013-01-26 22:52:00,58.0,56.0,-100.00,WSW,247,1.0,-999.0,93,0.00,,,-99.99,0.000000,,2013-01-27 03:52:00,
2013-01-26 23:02:00,57.0,56.0,-100.00,WNW,299,1.0,-999.0,94,0.00,,,-99.99,0.000000,,2013-01-27 04:02:00,
2013-01-26 23:12:00,57.0,55.0,-100.00,West,259,1.0,-999.0,94,0.00,,,-99.99,0.000000,,2013-01-27 04:12:00,
2013-01-26 23:22:00,57.0,55.0,-100.00,West,259,1.0,-999.0,94,0.00,,,-99.99,0.000000,,2013-01-27 04:22:00,
2013-01-26 23:32:00,57.0,55.0,-100.00,WSW,256,1.0,-999.0,94,0.00,,,-99.99,0.000000,,2013-01-27 04:32:00,
2013-01-26 23:42:00,57.0,55.0,-100.00,WSW,256,1.0,-999.0,94,0.00,,,-99.99,0.000000,,2013-01-27 04:42:00,
2013-01-26 23:52:00,56.0,55.0,-100.00,WSW,242,1.0,-999.0,94,0.00,,,-99.99,0.000000,,2013-01-27 04:52:00,